Home > Weather > Shymkent > Past weeks

Flag for Kazakhstan Past Weather in Shymkent, Kazakhstan — Yesterday and Last 2 Weeks

Now
73 °F

Partly cloudy.


Feels Like: 76 °F
Forecast: 68 / 82 °F
Wind: 6 mph from Southeast

Location: Shymkent Airport

Current Time: Jul 29, 2016 at 12:29:35 AM

Latest Report: Jul 29, 2016 at 12:00 AM


Visibility: N/A

Pressure: 29.74 "Hg (28.05 "Hg at 506m altitude)

Humidity: 65%

Dew Point: 61 °F

Location of ShymkentLocation

Past Weather in Shymkent — Graph

°F

Shymkent Temperature Yesterday

Maximum temperature yesterday: 95 °F (at 4:30 PM)
Minimum temperature yesterday: 73 °F (at 9:30 PM)
Average temperature yesterday: 83 °F

High & Low Weather Summary for the Past Weeks

 TemperatureHumidityPressure
High104 °F (Jul 25, 1:30 PM)78% (Jul 14, 12:30 PM)29.92 "Hg (Jul 14, 12:30 PM)
Low63 °F (Jul 23, 6:30 AM)10% (Jul 20, 4:00 PM)29.56 "Hg (Jul 18, 4:30 AM)
Average84 °F33%29.72 "Hg
* Reported Jul 13 11:00 PM — Jul 28 11:00 PM, Shymkent, Weather by CustomWeather, © 2016

Note: Actual official high and low records may vary slightly from our data, if they occured in-between our weather recording intervals... More about our weather records

Advertising

Shymkent Weather History for the Previous 24 Hours

Scroll right to see more
 ConditionsComfort  
Time TempWeatherWind HumidityBarometerVisibility
11:00 PM
Thu, Jul 28
75 °FMostly cloudy.8 mph57%29.74 "HgN/A
10:30 PM73 °FThundershowers. Mostly cloudy.6 mph61%29.74 "HgN/A
10:00 PM75 °FThundershowers. Mostly cloudy.6 mph61%29.74 "HgN/A
9:30 PM73 °FThundershowers. Mostly cloudy.6 mph65%29.74 "HgN/A
9:00 PM75 °FThunderstorms. Mostly cloudy.10 mph54%29.74 "HgN/A
8:30 PM81 °FThunderstorms. Partly sunny.8 mph51%29.74 "HgN/A
8:00 PM84 °FThundershowers. Broken clouds.1 mph43%29.71 "HgN/A
7:30 PM84 °FThunderstorms. Broken clouds.3 mph43%29.71 "HgN/A
7:00 PM82 °FSprinkles. Partly sunny.8 mph42%29.71 "HgN/A
6:30 PM86 °FBroken clouds.15 mph35%29.71 "HgN/A
6:00 PM84 °FBroken clouds.15 mph40%29.68 "HgN/A
5:30 PM86 °FBroken clouds.13 mph35%29.68 "HgN/A
5:00 PM93 °FMore clouds than sun.15 mph17%29.68 "HgN/A
4:30 PM95 °FBroken clouds.17 mph16%29.68 "HgN/A
4:00 PM91 °FMostly cloudy.10 mph23%29.68 "HgN/A
3:30 PM90 °FMostly cloudy.10 mph27%29.68 "HgN/A
3:00 PM90 °FMostly cloudy.15 mph27%29.68 "HgN/A
2:30 PM91 °FBroken clouds.15 mph24%29.68 "HgN/A
2:00 PM91 °FBroken clouds.10 mph28%29.68 "HgN/A
1:30 PM90 °FMore clouds than sun.13 mph29%29.68 "HgN/A
1:00 PM90 °FMore clouds than sun.13 mph29%29.68 "HgN/A
12:30 PM90 °FBroken clouds.10 mph29%29.68 "HgN/A
12:00 PM88 °FPartly sunny.10 mph33%29.68 "HgN/A
11:30 AM91 °FScattered clouds.10 mph28%29.71 "HgN/A
11:00 AM88 °FMore clouds than sun.8 mph35%29.71 "HgN/A
10:30 AM88 °FMore clouds than sun.8 mph35%29.71 "HgN/A
10:00 AM86 °FMore clouds than sun.6 mph38%29.71 "HgN/A
9:30 AM84 °FMore clouds than sun.15 mph37%29.71 "HgN/A
9:00 AM86 °FOvercast.10 mph33%29.71 "HgN/A
8:30 AM84 °FOvercast.6 mph37%29.68 "HgN/A
8:00 AM82 °FOvercast.13 mph40%29.68 "HgN/A
7:30 AM79 °FSunny.13 mph45%29.68 "Hg10 mi
7:00 AM79 °FSunny.10 mph42%29.68 "Hg10 mi
6:30 AM77 °FSunny.8 mph44%29.68 "Hg10 mi
6:00 AM75 °FPassing clouds.8 mph47%29.65 "HgN/A
5:30 AM77 °FMostly cloudy.6 mph47%29.65 "HgN/A
5:00 AM77 °FMostly cloudy.13 mph47%29.65 "HgN/A
4:30 AM77 °FMostly cloudy.13 mph47%29.65 "HgN/A
4:00 AM77 °FMostly cloudy.13 mph47%29.65 "HgN/A
3:30 AM77 °FMostly cloudy.13 mph44%29.65 "HgN/A
3:00 AM79 °FMostly cloudy.13 mph45%29.65 "HgN/A
2:30 AM75 °FMostly cloudy.13 mph57%29.65 "HgN/A
2:00 AM75 °FMostly cloudy.13 mph57%29.68 "HgN/A
1:30 AM75 °FThundershowers. Mostly cloudy.6 mph61%29.68 "HgN/A
1:00 AM75 °FThundershowers. Mostly cloudy.6 mph65%29.68 "HgN/A
12:30 AM81 °FThundershowers. Mostly cloudy.13 mph48%29.71 "HgN/A
12:00 AM81 °FMostly cloudy.13 mph51%29.68 "HgN/A
Weather by CustomWeather, © 2016

See weather overviewHow to use our weather pages